FALCON 9 DEB (45420 NORAD) Tracking and Keplerian Element Data

This shows tracking and keplerian element data for the satellite.

Feedback or suggestion? Click here.




ElementValue
Catalog45420
NameFALCON 9 DEB
Epoch Orbit495
Epoch Day105.36217031
Epoch Year2020
RAAN117.0996
Inclination52.9858
Eccentricity0.0011777
Argument of Perigee154.8409
Mean Anonmoly205.3216
Mean Motion16.48359681
Decay Rate0.11891165
L11 45420U 20019BN 20105.36217031 .11891165 12419-4 15898-3 0 9995
L22 45420 52.9858 117.0996 0011777 154.8409 205.3216 16.48359681 4959

Live tracking and technical data element details for FALCON 9 DEB (NORAD 45420). FALCON 9 DEB can be tracked NOW for your location showing map with azimuth and elevation plus other details from your city location.

Track the satellite on the map from your city or location and see movement details for azimuth, elevation, latitude, longitude, range, height, and movement on the map or in text.







IsCatalogInMostPopularTable: catalog: 45420, numindb: 21
Update: records affected: 1



GetName: 45420 FALCON 9 DEB

Hit Count: updated at: Wed, 08 Jul 2020 04:44:58 GMT